SBFLSBJV

Guest
Details From SBFL - Hercillo Luz
To SBJV - Lauro Carneiro De Loyola
Flight Number -
Tags Generated
Created
Modified
Stats Distance 89 nm / 164 km
Max Altitude 0 ft / 0 m
Waypoints 2
Social Downloads 2
Likes 0
Share VATSIM

Download

Looking for another format? Having issues loading an existing format? Contact us
Advertisement - Login to hide

Notes

Generated

Route

SBFL SBJV

ID Type Via Altitude Latitude Longitude Leg Dist Tot Dist Heading (true) Name
O SBFL APT - 0 ft / 0 m -27.67664˚ -48.55458˚ - 0 nm - -
O SBJV APT - 0 ft / 0 m -26.21982˚ -48.80376˚ 88 nm 88 nm 351° / 351° LAURO CARNEIRO DE LOYOLA

Altitude Profile

Advertisement - Login to hide

SBFL

Details ICAO SBFL (FLN)
Name Hercillo Luz
Region Brazil
Timezone America/Sao_Paulo (UTC-3.0)
Stats Elevation 19 ft / 6 m (AMSL)
Location -27.670487° -48.547180°
Runways 2
Magnetic Variation 19.381° W

METAR

SBFL 230400Z 20003KT 9999 FEW030 BKN060 16/12 Q1020

Decode

TAF

TAF SBFL 222230Z 2300/2324 18007KT CAVOK TN14/2308Z TX20/2318Z BECMG 2314/2316 9999 SCT035 RMK PEB

Decode

Departure Runways

ID Width Length Bearing (true) Bearing (mag) Surface Threshold Offset Overrun Length
03 148 ft / 45 m 4,939 ft / 1,505 m 11.55° 30.93° Concrete 0 ft / 0 m 0 ft / 0 m
14 148 ft / 45 m 7,543 ft / 2,299 m 121.30° 140.68° Asphalt 720 ft / 219 m 0 ft / 0 m
21 148 ft / 45 m 4,939 ft / 1,505 m 191.55° 210.93° Concrete 0 ft / 0 m 0 ft / 0 m
32 148 ft / 45 m 7,543 ft / 2,299 m 301.29° 320.67° Asphalt 0 ft / 0 m 200 ft / 61 m

SBJV

Details ICAO SBJV (JOI)
Name LAURO CARNEIRO DE LOYOLA
Region Brazil
Timezone Unknown (UTC+0.0)
Stats Elevation 15 ft / 5 m (AMSL)
Location -26.224452° -48.797362°
Runways 1
Magnetic Variation 19.688° W

METAR

Not found

TAF

TAF SBJV 222230Z 2300/2312 23006KT 9999 BKN020 TX14/2300Z TN12/2308Z PROB30 2307/2311 00000KT 0600 FG BKN003 RMK PEB

Decode

Destination Runways

ID Width Length Bearing (true) Bearing (mag) Surface Threshold Offset Overrun Length
15 148 ft / 45 m 5,382 ft / 1,640 m 128.89° 148.58° Asphalt 0 ft / 0 m 200 ft / 61 m
33 148 ft / 45 m 5,382 ft / 1,640 m 308.88° 328.57° Asphalt 0 ft / 0 m 200 ft / 61 m

Popular Alternatives